JBU1022 KATL-KBHM

Flight info

Callsign JBU1022
Flight time 0h 33m
Altitude 16000
Route NASSA2 NASSA KIOSK
Aircraft A320/M-SDE3FGHIRWY/LB1

Departure

Time 2026-04-19 23:36
Airport Hartsfield Jackson Atlanta International Airport (KATL)

Arrival

Time 2026-04-20 00:09
Airport Birmingham-Shuttlesworth International Airport (KBHM)
Time Latitude Longitude Altitude Speed Heading
2026-04-19 23:06 33.63943 -84.43212 1012 ft 0 kts 270°
2026-04-19 23:23 33.63943 -84.43210 1012 ft 2 kts 270°
2026-04-19 23:24 33.63943 -84.43180 1012 ft 4 kts 269°
2026-04-19 23:24 33.63947 -84.43149 1011 ft 4 kts 248°
2026-04-19 23:24 33.63960 -84.43122 1011 ft 4 kts 219°
2026-04-19 23:24 33.63967 -84.43115 1012 ft 0 kts 217°
2026-04-19 23:27 33.63966 -84.43116 1011 ft 1 kts 217°
2026-04-19 23:27 33.63950 -84.43130 1011 ft 4 kts 206°
2026-04-19 23:28 33.63906 -84.43130 1009 ft 9 kts 181°
2026-04-19 23:28 33.63831 -84.43131 1007 ft 12 kts 180°
2026-04-19 23:28 33.63771 -84.43130 1007 ft 0 kts 180°
2026-04-19 23:28 33.63768 -84.43131 1007 ft 1 kts 180°
2026-04-19 23:29 33.63746 -84.43130 1007 ft 6 kts 180°
2026-04-19 23:29 33.63699 -84.43122 1008 ft 9 kts 158°
2026-04-19 23:29 33.63635 -84.43098 1008 ft 11 kts 178°
2026-04-19 23:29 33.63582 -84.43055 1008 ft 11 kts 111°
2026-04-19 23:30 33.63582 -84.42951 1006 ft 14 kts 90°
2026-04-19 23:30 33.63581 -84.42842 1006 ft 10 kts 88°
2026-04-19 23:30 33.63610 -84.42774 1007 ft 10 kts 31°
2026-04-19 23:30 33.63654 -84.42748 1008 ft 6 kts 83°
2026-04-19 23:31 33.63655 -84.42694 1009 ft 9 kts 91°
2026-04-19 23:31 33.63655 -84.42602 1009 ft 14 kts 90°
2026-04-19 23:31 33.63653 -84.42470 1006 ft 17 kts 90°
2026-04-19 23:31 33.63655 -84.42315 1005 ft 20 kts 89°
2026-04-19 23:32 33.63655 -84.42145 1005 ft 21 kts 90°
2026-04-19 23:32 33.63655 -84.41954 998 ft 26 kts 89°
2026-04-19 23:32 33.63655 -84.41724 995 ft 29 kts 90°
2026-04-19 23:32 33.63655 -84.41476 988 ft 28 kts 90°
2026-04-19 23:33 33.63654 -84.41262 988 ft 25 kts 89°
2026-04-19 23:33 33.63653 -84.41073 988 ft 13 kts 92°
2026-04-19 23:33 33.63654 -84.40960 987 ft 12 kts 91°
2026-04-19 23:33 33.63605 -84.40908 992 ft 11 kts 175°
2026-04-19 23:34 33.63526 -84.40912 992 ft 11 kts 184°
2026-04-19 23:34 33.63470 -84.40933 989 ft 7 kts 244°
2026-04-19 23:34 33.63470 -84.40955 991 ft 0 kts 271°
2026-04-19 23:35 33.63470 -84.40970 989 ft 9 kts 272°
2026-04-19 23:35 33.63472 -84.41316 991 ft 73 kts 270°
2026-04-19 23:36 33.63476 -84.42145 1000 ft 123 kts 271°
2026-04-19 23:36 33.63476 -84.43330 1023 ft 160 kts 274°
2026-04-19 23:36 33.63487 -84.44668 1594 ft 159 kts 273°
2026-04-19 23:36 33.63482 -84.46002 2213 ft 161 kts 276°
2026-04-19 23:37 33.63472 -84.47429 2530 ft 182 kts 275°
2026-04-19 23:37 33.63473 -84.49054 2856 ft 206 kts 274°
2026-04-19 23:37 33.63473 -84.50874 3249 ft 229 kts 274°
2026-04-19 23:37 33.63473 -84.52881 3701 ft 252 kts 274°
2026-04-19 23:38 33.63475 -84.55022 4469 ft 258 kts 274°
2026-04-19 23:38 33.63471 -84.57187 5402 ft 261 kts 274°
2026-04-19 23:38 33.63461 -84.59384 6266 ft 266 kts 275°
2026-04-19 23:38 33.63459 -84.61617 7109 ft 269 kts 275°
2026-04-19 23:39 33.63454 -84.63871 7999 ft 270 kts 274°
2026-04-19 23:39 33.63437 -84.66128 8868 ft 271 kts 274°
2026-04-19 23:39 33.63436 -84.68394 9769 ft 271 kts 274°
2026-04-19 23:39 33.63436 -84.70671 10461 ft 280 kts 274°
2026-04-19 23:40 33.63455 -84.73092 10716 ft 300 kts 275°
2026-04-19 23:40 33.63722 -84.75653 10943 ft 318 kts 282°
2026-04-19 23:40 33.64103 -84.78311 11467 ft 326 kts 282°
2026-04-19 23:40 33.64496 -84.81011 12114 ft 330 kts 282°
2026-04-19 23:41 33.64889 -84.83741 12797 ft 333 kts 281°
2026-04-19 23:41 33.65267 -84.86495 13527 ft 335 kts 281°
2026-04-19 23:41 33.65628 -84.89267 14235 ft 337 kts 280°
2026-04-19 23:41 33.65984 -84.92060 14864 ft 339 kts 280°
2026-04-19 23:42 33.66340 -84.94864 15482 ft 341 kts 280°
2026-04-19 23:42 33.66698 -84.97686 15926 ft 342 kts 280°
2026-04-19 23:42 33.67057 -85.00513 16048 ft 347 kts 280°
2026-04-19 23:42 33.67431 -85.03450 16074 ft 365 kts 280°
2026-04-19 23:43 33.67820 -85.06491 16076 ft 372 kts 280°
2026-04-19 23:43 33.68212 -85.09567 16075 ft 373 kts 280°
2026-04-19 23:43 33.68603 -85.12653 16075 ft 374 kts 280°
2026-04-19 23:43 33.68992 -85.15743 16073 ft 374 kts 280°
2026-04-19 23:44 33.69382 -85.18831 16074 ft 374 kts 280°
2026-04-19 23:44 33.69695 -85.21931 16072 ft 375 kts 274°
2026-04-19 23:44 33.69572 -85.25066 16072 ft 377 kts 265°
2026-04-19 23:44 33.69188 -85.28186 16069 ft 378 kts 264°
2026-04-19 23:45 33.68798 -85.31303 16068 ft 378 kts 264°
2026-04-19 23:45 33.68408 -85.34422 16067 ft 378 kts 264°
2026-04-19 23:45 33.68019 -85.37546 16065 ft 378 kts 264°
2026-04-19 23:45 33.67632 -85.40670 16066 ft 378 kts 264°
2026-04-19 23:46 33.67245 -85.43795 16064 ft 378 kts 264°
2026-04-19 23:46 33.66859 -85.46919 16061 ft 378 kts 264°
2026-04-19 23:46 33.66474 -85.50040 16062 ft 378 kts 264°
2026-04-19 23:46 33.66086 -85.53165 16052 ft 378 kts 264°
2026-04-19 23:47 33.65697 -85.56281 16053 ft 378 kts 264°
2026-04-19 23:47 33.65305 -85.59400 16052 ft 378 kts 264°
2026-04-19 23:47 33.64913 -85.62518 16050 ft 378 kts 264°
2026-04-19 23:47 33.64521 -85.65641 16054 ft 378 kts 264°
2026-04-19 23:48 33.64261 -85.67708 16052 ft 378 kts 264°
2026-04-19 23:48 33.63869 -85.70829 16052 ft 379 kts 264°
2026-04-19 23:48 33.63474 -85.73952 16056 ft 379 kts 264°
2026-04-19 23:48 33.63078 -85.77077 16052 ft 379 kts 264°
2026-04-19 23:49 33.62552 -85.81209 16054 ft 378 kts 264°
2026-04-19 23:49 33.62283 -85.83320 16053 ft 379 kts 264°
2026-04-19 23:49 33.61886 -85.86438 16055 ft 378 kts 264°
2026-04-19 23:49 33.61488 -85.89558 16050 ft 378 kts 264°
2026-04-19 23:50 33.61088 -85.92680 16049 ft 379 kts 264°
2026-04-19 23:50 33.60689 -85.95780 16039 ft 368 kts 264°
2026-04-19 23:50 33.60302 -85.98745 15900 ft 352 kts 264°
2026-04-19 23:50 33.59930 -86.01590 15612 ft 341 kts 264°
2026-04-19 23:51 33.59569 -86.04381 15126 ft 337 kts 264°
2026-04-19 23:51 33.59212 -86.07156 14603 ft 336 kts 264°
2026-04-19 23:51 33.58857 -86.09917 14068 ft 334 kts 265°
2026-04-19 23:51 33.58504 -86.12667 13485 ft 333 kts 265°
2026-04-19 23:52 33.58150 -86.15406 12969 ft 331 kts 264°
2026-04-19 23:52 33.57793 -86.18123 12442 ft 329 kts 264°
2026-04-19 23:52 33.57433 -86.20827 11921 ft 328 kts 264°
2026-04-19 23:52 33.57083 -86.23481 11411 ft 326 kts 264°
2026-04-19 23:53 33.56732 -86.26154 11050 ft 323 kts 264°
2026-04-19 23:53 33.56231 -86.28782 10659 ft 326 kts 251°
2026-04-19 23:53 33.55017 -86.31092 10316 ft 327 kts 236°
2026-04-19 23:53 33.53620 -86.33179 10198 ft 315 kts 236°
2026-04-19 23:54 33.52256 -86.35183 10066 ft 305 kts 236°
2026-04-19 23:54 33.50935 -86.37115 9930 ft 295 kts 236°
2026-04-19 23:54 33.49652 -86.38983 9759 ft 287 kts 236°
2026-04-19 23:54 33.48388 -86.40815 9455 ft 284 kts 236°
2026-04-19 23:55 33.47127 -86.42634 9093 ft 284 kts 236°
2026-04-19 23:55 33.45871 -86.44464 8724 ft 284 kts 236°
2026-04-19 23:55 33.44616 -86.46292 8375 ft 284 kts 236°
2026-04-19 23:55 33.43362 -86.48127 8038 ft 284 kts 236°
2026-04-19 23:56 33.42112 -86.49965 7650 ft 285 kts 236°
2026-04-19 23:56 33.40863 -86.51806 7338 ft 285 kts 236°
2026-04-19 23:56 33.39618 -86.53652 6990 ft 285 kts 236°
2026-04-19 23:56 33.38376 -86.55497 6659 ft 285 kts 236°
2026-04-19 23:57 33.37134 -86.57343 6343 ft 284 kts 236°
2026-04-19 23:57 33.35904 -86.59185 6026 ft 282 kts 236°
2026-04-19 23:57 33.34690 -86.61019 5720 ft 281 kts 236°
2026-04-19 23:57 33.33488 -86.62852 5403 ft 279 kts 236°
2026-04-19 23:58 33.32301 -86.64674 5130 ft 277 kts 235°
2026-04-19 23:58 33.31130 -86.66495 4830 ft 276 kts 236°
2026-04-19 23:58 33.29970 -86.68316 4518 ft 274 kts 236°
2026-04-19 23:58 33.28817 -86.70129 4199 ft 274 kts 236°
2026-04-19 23:59 33.27699 -86.71952 3998 ft 270 kts 243°
2026-04-19 23:59 33.27178 -86.74043 3990 ft 262 kts 273°
2026-04-19 23:59 33.27560 -86.76117 3992 ft 254 kts 300°
2026-04-19 23:59 33.28440 -86.77944 3991 ft 253 kts 306°
2026-04-20 00:00 33.29360 -86.79685 3996 ft 241 kts 306°
2026-04-20 00:00 33.30238 -86.81330 3998 ft 228 kts 306°
2026-04-20 00:00 33.31066 -86.82882 3998 ft 216 kts 306°
2026-04-20 00:00 33.31867 -86.84390 4002 ft 214 kts 306°
2026-04-20 00:01 33.32666 -86.85893 3998 ft 214 kts 306°
2026-04-20 00:01 33.33463 -86.87395 3998 ft 214 kts 306°
2026-04-20 00:01 33.35056 -86.90396 3999 ft 213 kts 306°
2026-04-20 00:02 33.35852 -86.91893 3996 ft 212 kts 306°
2026-04-20 00:02 33.36612 -86.93334 3998 ft 198 kts 306°
2026-04-20 00:02 33.37336 -86.94712 3999 ft 194 kts 306°
2026-04-20 00:02 33.38052 -86.96078 3999 ft 193 kts 306°
2026-04-20 00:03 33.38820 -86.97383 3996 ft 190 kts 318°
2026-04-20 00:03 33.39883 -86.98285 3999 ft 187 kts 338°
2026-04-20 00:03 33.41132 -86.98646 3989 ft 184 kts 358°
2026-04-20 00:03 33.42392 -86.98445 3733 ft 185 kts 18°
2026-04-20 00:04 33.43506 -86.97675 3479 ft 188 kts 40°
2026-04-20 00:04 33.44326 -86.96448 3460 ft 190 kts 51°
2026-04-20 00:04 33.45044 -86.95207 3442 ft 174 kts 51°
2026-04-20 00:04 33.45713 -86.94052 3305 ft 164 kts 51°
2026-04-20 00:05 33.46333 -86.92981 3187 ft 151 kts 51°
2026-04-20 00:05 33.46892 -86.92015 2978 ft 137 kts 51°
2026-04-20 00:05 33.47439 -86.91072 2581 ft 136 kts 51°
2026-04-20 00:05 33.47980 -86.90139 2228 ft 136 kts 51°
2026-04-20 00:06 33.48513 -86.89219 2212 ft 136 kts 50°
2026-04-20 00:06 33.49060 -86.88275 2213 ft 139 kts 51°
2026-04-20 00:06 33.49610 -86.87323 2212 ft 138 kts 50°
2026-04-20 00:06 33.50158 -86.86373 2199 ft 139 kts 51°
2026-04-20 00:07 33.50706 -86.85428 2189 ft 138 kts 50°
2026-04-20 00:07 33.51253 -86.84482 2078 ft 138 kts 52°
2026-04-20 00:07 33.51789 -86.83551 1921 ft 137 kts 51°
2026-04-20 00:07 33.52332 -86.82610 1761 ft 137 kts 52°
2026-04-20 00:08 33.52874 -86.81669 1589 ft 137 kts 51°
2026-04-20 00:08 33.53421 -86.80728 1359 ft 140 kts 51°
2026-04-20 00:08 33.53974 -86.79767 1205 ft 140 kts 51°
2026-04-20 00:08 33.54529 -86.78800 1005 ft 142 kts 52°
2026-04-20 00:09 33.55083 -86.77841 825 ft 139 kts 51°
2026-04-20 00:09 33.55632 -86.76888 634 ft 137 kts 55°
2026-04-20 00:09 33.56096 -86.76091 635 ft 93 kts 56°
2026-04-20 00:09 33.56365 -86.75620 645 ft 44 kts 54°
2026-04-20 00:10 33.56499 -86.75389 644 ft 32 kts 54°
2026-04-20 00:10 33.56623 -86.75175 647 ft 27 kts 56°
2026-04-20 00:10 33.56667 -86.75065 645 ft 10 kts 86°
2026-04-20 00:10 33.56621 -86.74990 647 ft 13 kts 132°
2026-04-20 00:11 33.56605 -86.74969 644 ft 0 kts 133°
2026-04-20 00:11 33.56604 -86.74968 644 ft 1 kts 134°
2026-04-20 00:11 33.56599 -86.74971 644 ft 1 kts 199°
2026-04-20 00:12 33.56600 -86.74981 644 ft 3 kts 269°
2026-04-20 00:12 33.56587 -86.75032 643 ft 10 kts 241°
2026-04-20 00:12 33.56536 -86.75118 643 ft 14 kts 234°
2026-04-20 00:12 33.56478 -86.75134 642 ft 11 kts 151°
2026-04-20 00:13 33.56435 -86.75130 641 ft 7 kts 225°
2026-04-20 00:13 33.56396 -86.75134 641 ft 6 kts 150°
2026-04-20 00:13 33.56369 -86.75114 640 ft 3 kts 145°
2026-04-20 00:13 33.56365 -86.75110 640 ft 0 kts 144°